Location: Krasnoyarskiy Pitomnik
(51.1333°N, 71.6167°E)
Time: 21:05:32
(UTC+00:00)

A-11 Canister half - Pass Details

Date: 21 April 2024
Orbit: 1525 x 1683 km, 47.3° (Epoch: 19 May)

Event Time Altitude Azimuth Distance (km) Brightness Sun altitude
Rises 02:18:29 0° 244° (WSW) 4,885 11.1 19.7°
Reaches altitude 10° 02:21:38 10° 242° (WSW) 3,913 10.7 20.2°
Maximum altitude 02:31:32 65° 164° (SSE) 1,820 9.9 21.7°
Drops below altitude 10° 02:41:32 10° 86° (E) 3,943 12.9 23.3°
Sets 02:44:43 0° 83° (E) 4,924 12.9 23.8°
